Theta_e
300 299 299 300 300 300 301 301 302 302 300 301 299 299 298 295 293 292 291 291 292 295 300 299 299 303 303 304 306 306 305 309 309 306 306 306 307 309 309 307 306 308 308 307 307 306 306 306 306 308 311 312 313 314 313 312 312 312 313 313 315 314 314 315 316 320 325 331 331 326 324 323 322 319
301 302 301 300 302 302 299 300 302 301 300 299 299 299 299 298 296 293 292 292 292 295 296 299 299 301 302 304 305 305 304 310 308 305 305 305 306 309 307 306 305 306 306 307 306 305 305 306 307 309 309 310 309 309 309 309 309 309 309 310 312 314 316 314 315 316 317 319 321 322 321 320 320 320
303 301 300 300 301 302 300 300 301 301 301 300 299 299 300 300 297 296 294 292 293 298 297 296 299 300 300 303 303 303 303 306 307 304 304 304 308 308 306 306 305 306 305 305 305 305 304 305 306 307 308 309 310 309 309 309 309 309 309 309 311 314 317 318 316 318 320 321 321 321 320 319 318 319
301 301 301 301 300 300 299 299 300 299 301 301 299 299 299 299 297 296 295 294 295 297 297 298 299 300 301 301 300 300 301 303 307 302 303 304 306 304 304 305 305 305 304 304 303 303 304 304 303 303 304 305 306 306 307 307 308 308 308 308 310 311 315 317 316 318 321 321 321 321 320 319 319 319
301 301 300 300 300 299 298 298 299 300 299 299 300 301 299 298 298 298 296 295 296 296 297 298 299 300 300 299 299 299 299 300 301 303 301 302 302 302 302 303 305 304 304 303 303 303 303 302 302 301 302 302 303 304 304 305 306 304 305 306 309 310 313 316 317 318 320 322 322 320 318 318 318 319
303 301 300 299 299 300 298 298 298 299 299 298 298 299 299 298 299 299 298 295 295 294 295 297 297 297 299 297 298 298 298 298 300 299 300 300 301 302 302 302 304 304 305 303 303 304 303 303 303 302 302 302 303 304 303 302 302 302 303 303 306 309 311 312 313 315 317 319 319 318 318 318 318 319
302 300 301 300 300 301 297 298 299 299 299 298 298 298 298 298 297 298 297 295 293 293 293 295 294 296 295 295 296 297 298 298 299 298 298 299 301 302 301 301 303 303 303 302 302 302 302 302 303 302 302 302 302 303 303 303 303 302 301 301 302 304 306 306 307 310 313 316 316 316 316 317 318 318
302 301 300 299 300 300 297 297 298 298 298 298 298 297 297 297 297 297 296 296 294 294 291 291 294 295 293 293 294 297 297 297 297 298 298 298 299 299 301 300 301 304 303 302 301 301 302 302 302 302 302 302 302 302 302 303 303 303 301 301 301 301 302 303 303 304 307 311 312 313 313 316 319 322
302 302 301 299 301 299 297 297 298 298 297 297 296 295 295 295 296 297 295 294 293 291 289 290 292 293 292 294 294 296 295 295 296 296 297 297 298 298 299 300 301 304 303 301 301 300 300 300 301 301 301 301 302 302 302 302 303 303 304 303 303 302 302 303 304 305 305 306 307 309 310 314 319 323
302 302 301 299 301 300 299 299 298 297 296 294 294 293 293 294 294 293 293 293 291 290 290 290 290 291 292 292 292 294 295 294 295 295 295 295 296 297 297 298 300 302 301 299 299 300 299 300 300 301 301 300 301 301 301 302 302 302 302 302 303 302 301 301 302 303 301 303 304 305 308 310 315 320
302 302 301 300 301 300 299 299 299 298 295 296 293 295 293 292 292 292 291 290 290 290 290 289 289 290 292 292 291 293 293 293 294 293 293 293 295 295 295 295 297 300 299 298 298 298 298 300 300 300 300 300 301 301 301 303 302 300 299 299 300 300 299 299 299 302 303 304 303 302 302 302 307 311
303 302 302 301 301 301 300 300 299 298 295 294 293 293 293 292 291 291 291 290 289 289 289 288 288 289 289 290 291 293 292 292 292 294 293 291 292 293 294 294 295 298 296 296 296 297 297 298 299 299 300 300 301 301 302 303 302 299 298 299 301 302 301 299 299 301 302 303 302 300 300 302 305 306
302 302 301 301 301 304 305 302 301 299 298 294 292 292 293 291 290 290 290 290 289 289 289 289 289 288 288 288 289 290 290 289 289 292 292 291 292 292 293 293 294 297 294 294 294 294 295 296 297 297 297 299 301 300 303 302 300 298 298 299 301 300 301 301 301 301 301 302 302 301 300 301 302 300
302 302 302 303 306 305 304 301 298 296 297 298 295 292 292 292 290 289 288 289 289 290 289 288 288 288 287 287 288 288 289 290 291 290 290 290 291 291 291 292 293 295 294 293 292 293 295 296 296 296 296 298 299 299 301 299 298 298 298 299 300 299 299 300 300 300 301 301 301 300 300 300 300 300
303 302 301 300 304 304 304 301 296 295 294 294 294 295 295 295 291 289 289 288 288 291 289 288 288 287 287 288 288 288 289 289 289 289 289 290 290 288 288 287 290 294 293 292 291 291 294 295 294 295 296 297 297 298 299 297 298 298 298 299 299 300 300 300 299 299 299 299 299 299 299 299 300 300
303 302 299 300 303 302 301 298 295 295 294 293 293 292 293 293 294 294 292 291 289 288 288 287 288 287 287 287 287 288 288 289 289 289 288 288 288 288 287 286 287 291 293 291 290 290 293 294 294 293 295 296 296 297 297 297 298 298 298 298 298 298 299 299 299 298 298 298 298 298 298 298 297 297
302 300 300 300 300 299 303 299 294 295 294 293 293 293 293 293 292 291 292 294 294 289 288 288 287 287 287 287 288 291 289 289 288 288 288 288 287 287 286 287 288 290 292 290 289 289 291 292 292 292 294 295 296 296 297 296 298 298 298 298 297 297 297 298 298 297 297 297 297 297 298 298 298 298
301 301 299 298 297 297 298 296 296 295 294 294 293 292 292 292 293 291 291 290 291 292 291 288 288 288 290 290 289 291 290 289 289 287 287 287 287 287 287 288 288 290 292 289 288 288 289 290 291 290 292 294 294 295 296 294 297 297 297 296 296 296 296 296 296 296 296 296 295 296 297 297 297 297
299 298 299 297 297 297 297 297 295 295 294 293 293 291 291 291 290 290 290 290 290 291 290 289 289 289 289 289 289 289 289 289 289 289 288 288 288 288 288 287 288 288 289 289 288 285 288 289 290 290 291 293 293 295 295 295 296 296 296 296 296 296 296 295 295 295 295 296 296 296 295 295 296 296
298 298 299 299 298 297 297 297 293 295 295 292 292 292 292 291 292 292 293 293 293 293 290 289 289 289 290 293 290 290 289 288 288 289 288 286 286 285 284 284 286 286 287 289 287 286 287 289 289 289 291 291 291 294 295 295 296 296 296 296 296 295 295 295 295 295 295 295 296 296 295 295 294 294
296 296 297 297 296 294 293 292 293 293 294 294 293 292 291 292 291 291 292 291 291 291 291 291 291 290 290 290 290 290 290 289 289 287 284 284 283 283 283 284 284 284 286 287 289 287 286 287 287 289 289 290 291 292 295 295 295 296 296 296 296 295 295 295 295 295 295 295 295 295 295 295 295 295
292 297 303 298 293 292 291 290 291 292 294 293 292 292 291 290 289 289 290 291 291 291 291 290 290 290 289 290 290 290 291 290 291 286 284 285 283 283 283 283 283 284 286 287 289 285 284 287 287 288 288 287 289 291 296 296 296 296 295 295 295 295 295 294 294 295 296 295 294 294 295 295 296 297
289 290 294 296 293 292 291 289 290 290 292 291 291 291 290 289 288 289 289 288 286 285 285 284 286 286 289 288 287 289 290 290 292 287 286 285 284 283 283 284 283 283 282 286 288 286 285 286 286 286 287 286 285 287 291 293 295 297 296 295 294 295 294 293 293 294 294 294 294 294 294 294 295 295
288 289 289 291 289 289 289 289 289 290 290 291 291 290 289 288 289 289 288 289 286 284 284 283 284 285 285 285 285 285 285 288 290 289 287 286 286 285 284 284 284 282 283 284 288 286 286 286 286 284 286 285 282 286 289 291 292 294 295 294 292 293 294 294 293 294 294 294 294 294 294 294 295 293
288 288 288 288 290 289 289 289 289 289 290 290 291 289 288 288 289 287 284 286 290 284 285 285 284 285 285 284 284 284 284 286 287 288 287 287 286 286 285 284 284 284 285 288 291 287 285 285 286 285 286 287 287 287 288 287 290 291 293 294 294 294 292 292 292 290 293 293 293 293 293 294 294 293
287 286 286 287 289 288 288 288 288 289 289 290 291 289 288 287 287 287 288 285 285 283 283 282 283 283 282 283 284 285 285 286 288 287 287 287 287 287 287 286 285 284 285 287 290 288 287 286 286 286 287 286 287 287 287 287 289 290 292 292 292 294 294 293 292 291 290 289 290 291 290 293 293 293
286 286 286 288 289 288 288 288 288 288 288 289 288 287 287 287 287 288 286 285 283 282 282 283 283 282 282 283 283 284 284 285 286 286 287 287 287 288 289 289 288 287 288 288 291 290 289 287 288 288 287 288 286 287 287 286 286 287 288 289 291 292 293 293 293 293 292 293 293 293 293 292 292 292
286 286 287 289 288 288 288 288 288 287 288 286 287 287 287 287 288 286 284 283 283 283 282 282 281 282 282 282 283 284 285 286 286 287 287 287 287 287 287 288 289 289 289 289 289 289 290 289 290 290 290 288 287 286 286 288 287 287 288 290 291 293 293 292 292 292 293 292 291 291 290 292 291 290
288 289 289 288 288 288 288 288 288 288 288 287 287 287 287 290 283 283 282 283 282 281 282 282 282 282 283 284 285 285 285 286 286 286 286 287 287 287 288 288 288 289 291 291 290 290 291 291 290 291 291 291 289 289 289 288 289 289 289 289 289 291 293 293 292 293 293 290 291 291 292 291 289 290
288 288 288 288 288 288 288 286 285 285 285 288 287 288 288 282 282 282 282 281 282 281 281 282 283 283 283 283 284 285 285 284 284 285 285 285 285 286 286 286 286 287 288 290 290 290 290 290 290 290 290 290 291 290 290 290 289 291 291 290 291 290 290 292 292 292 292 291 291 291 291 289 289 291
287 287 288 287 287 287 287 286 286 286 286 284 284 282 282 282 281 282 282 282 282 282 282 282 282 283 283 284 283 283 283 284 284 285 286 285 285 285 285 285 285 286 287 288 289 290 290 290 290 290 289 289 290 291 291 292 290 290 291 291 291 288 289 291 292 291 291 291 290 288 288 288 290 292
287 285 286 285 284 284 283 282 281 281 282 282 283 282 282 281 282 284 287 287 282 282 282 282 282 282 282 282 283 283 284 284 285 285 285 285 285 285 285 284 284 285 285 286 287 288 288 290 290 290 291 291 289 290 292 291 290 291 291 292 292 292 292 292 292 292 293 291 288 289 290 290 291 292
284 283 283 282 282 280 279 278 279 279 279 279 280 281 282 282 282 282 281 283 282 282 281 281 282 282 282 282 283 284 285 285 286 286 285 286 285 286 286 284 285 285 284 285 285 286 286 288 289 290 290 291 292 292 290 288 290 291 290 291 292 292 292 292 292 293 292 290 289 289 289 290 292 293
281 280 279 277 277 276 277 277 277 277 277 278 279 279 282 279 280 281 281 281 281 282 282 282 282 282 283 283 284 284 284 285 286 286 286 286 286 285 285 284 285 286 286 285 286 286 287 287 288 289 290 290 292 292 292 290 289 290 291 291 291 290 291 291 292 292 292 291 291 289 288 288 290 291
280 281 280 276 276 275 277 277 276 276 277 278 277 278 278 279 281 281 281 281 281 281 282 283 283 284 284 284 284 284 284 284 285 285 286 286 286 285 285 284 284 285 285 285 286 287 287 287 287 287 287 288 288 290 293 293 290 290 290 290 290 290 290 291 291 291 291 291 290 289 288 287 287 289
281 281 280 277 276 276 278 277 277 277 278 278 277 278 278 279 279 280 281 281 281 281 282 283 283 284 284 284 284 284 284 285 284 285 285 285 285 285 285 285 285 285 286 286 286 287 287 286 286 285 284 284 284 284 286 292 293 291 289 288 289 290 290 290 290 290 290 290 289 289 288 288 288 288
280 277 278 277 277 276 276 278 278 279 280 279 278 278 278 280 281 281 281 280 281 280 282 283 284 284 284 284 284 284 284 284 284 284 284 284 284 284 284 284 285 285 285 285 286 286 286 286 286 285 284 283 283 282 284 288 290 293 291 289 288 289 289 288 288 288 289 289 289 289 289 288 286 287
277 276 278 279 279 279 278 279 278 278 278 279 279 280 280 281 281 281 281 281 281 282 283 283 283 284 284 285 284 284 284 284 284 284 284 284 284 284 284 284 284 284 285 285 286 286 286 286 286 286 285 283 282 283 283 286 287 288 291 291 288 288 288 287 287 288 288 288 288 288 288 287 286 287
280 278 278 279 279 279 279 279 278 278 280 279 280 280 281 281 281 281 282 282 283 283 283 283 284 284 284 285 284 284 284 284 283 283 284 284 284 283 284 284 284 284 284 284 285 286 286 285 285 286 286 285 284 284 285 285 286 287 288 290 291 289 288 288 288 288 287 286 285 285 285 286 287 287
279 280 279 279 280 280 281 280 278 279 279 280 281 280 281 281 282 283 283 283 283 283 284 284 284 285 284 285 284 284 284 284 284 284 284 284 284 284 284 284 284 284 284 283 284 284 285 285 286 286 286 287 287 288 288 288 287 287 288 288 290 290 289 288 288 288 286 286 286 285 284 285 285 285
279 279 279 279 280 281 281 280 280 280 281 281 281 283 282 282 282 283 283 284 284 284 284 284 284 284 284 284 285 284 283 284 284 284 284 284 284 284 284 284 283 284 283 283 283 284 284 286 287 287 288 288 288 287 286 285 285 286 287 288 288 288 288 289 289 288 287 286 286 285 284 284 284 284
279 279 279 279 280 280 281 281 280 280 280 281 281 282 282 282 282 285 285 285 285 284 284 284 284 284 284 285 285 284 284 283 283 284 284 284 283 284 284 284 283 284 283 283 283 284 286 287 287 287 287 287 286 284 283 284 284 285 286 286 285 287 288 289 289 290 289 287 286 284 284 284 285 283
278 278 279 278 279 279 280 280 280 280 281 281 281 281 281 282 283 283 284 284 284 284 284 284 284 284 284 285 285 284 284 284 284 284 284 284 284 283 283 284 284 284 284 284 285 285 286 286 286 286 286 286 285 285 284 285 285 285 285 285 285 286 286 288 288 289 288 289 288 287 286 285 283 281
278 278 278 277 278 279 279 279 280 280 280 280 280 280 280 281 283 283 284 284 284 284 284 284 284 284 284 284 285 284 284 284 284 284 284 284 284 284 284 284 284 284 285 285 285 285 286 286 286 286 285 285 285 285 284 285 285 285 285 285 285 285 285 286 287 287 287 287 287 288 288 288 287 287
276 276 277 275 274 274 275 277 278 279 279 280 280 280 281 281 282 283 283 283 284 284 283 284 284 284 284 284 284 284 284 285 285 285 285 285 285 285 285 285 284 284 284 285 284 285 285 285 285 285 285 285 285 285 285 285 285 285 285 285 284 285 285 285 285 285 285 285 286 287 286 287 287 286
Wind_Speed
4 4 4 4 4 1 2 3 3 3 3 3 3 3 5 5 5 3 5 3 1 3 3 3 3 5 6 7 6 6 7 8 9 6 6 6 5 10 12 12 12 11 12 11 10 8 7 6 5 5 6 6 7 8 9 8 9 11 12 12 13 13 14 15 17 18 18 20 21 18 19 17 19 19
3 3 3 3 3 0 2 2 1 3 3 3 3 3 3 5 5 2 2 3 2 3 3 0 2 4 7 6 6 5 7 11 11 8 8 8 8 14 13 14 13 13 13 13 12 11 9 6 5 6 7 7 8 8 10 10 9 10 11 11 11 13 13 14 15 16 18 18 20 20 18 12 17 19
4 4 4 1 2 1 3 3 2 2 2 3 3 3 3 3 4 3 2 1 3 2 3 2 2 3 5 6 5 7 7 10 11 8 8 8 13 13 12 15 16 15 15 14 13 13 11 11 10 10 10 10 10 10 10 11 11 10 10 11 10 10 12 14 14 15 18 19 19 19 18 16 10 13
5 5 4 3 3 1 2 3 3 3 3 2 3 2 4 3 2 3 2 0 4 2 2 3 4 4 4 4 7 6 7 8 11 7 8 10 11 10 9 14 17 17 17 17 15 14 14 13 13 12 11 12 12 13 13 13 13 12 11 11 11 11 10 11 12 13 16 17 16 17 16 12 14 16
5 5 5 4 2 2 3 3 3 4 3 4 4 3 5 5 2 3 2 2 4 3 1 1 3 5 4 5 5 7 6 7 7 8 7 8 8 9 9 9 14 19 19 18 18 16 15 15 14 14 13 13 12 12 12 12 12 12 12 12 12 11 12 12 11 11 13 15 15 15 14 13 14 16
4 5 5 4 4 3 3 3 3 3 4 4 5 5 5 5 5 2 4 2 1 5 3 4 3 4 5 5 6 7 8 7 5 7 7 6 6 7 8 9 8 18 18 20 20 19 18 16 15 14 14 13 13 12 12 12 12 12 12 12 12 12 12 12 11 10 11 11 12 13 13 12 13 14
4 4 5 5 4 3 3 3 2 2 5 4 6 4 4 5 3 3 3 3 4 4 4 2 5 6 5 5 7 7 6 5 4 6 7 6 6 7 7 7 6 11 13 15 15 15 16 15 15 15 15 14 13 14 13 12 11 10 11 11 11 11 11 11 11 11 10 10 10 11 11 10 11 13
5 6 5 4 4 4 4 3 3 3 4 5 5 5 3 4 3 2 3 3 2 1 4 3 4 5 6 4 4 6 5 6 6 5 5 5 7 6 7 7 6 8 12 12 13 14 14 15 15 15 15 16 16 14 14 13 12 11 11 11 10 10 10 10 10 9 9 11 10 8 7 9 11 14
7 6 6 6 4 4 5 3 3 3 4 4 5 5 3 4 3 3 3 3 3 4 5 4 2 3 2 2 3 7 8 7 5 4 6 6 7 7 5 6 6 8 10 11 13 13 13 15 15 15 14 15 16 16 15 14 14 14 13 11 10 10 8 7 6 6 7 8 9 9 8 8 11 13
6 7 7 5 6 6 6 5 4 4 5 4 4 4 3 4 3 4 3 3 4 4 2 2 4 4 6 4 3 6 7 7 8 9 6 4 6 9 10 8 7 4 5 6 8 10 11 13 14 15 14 14 15 16 15 13 15 16 16 16 13 10 8 7 6 6 6 6 7 8 9 8 9 11
5 6 6 6 6 7 6 6 7 5 4 4 4 4 4 3 4 4 3 3 5 4 4 2 2 3 2 4 7 6 4 3 4 9 11 11 7 6 7 9 7 5 6 6 9 10 10 12 11 12 12 13 14 15 14 13 16 16 17 16 15 13 9 7 6 4 4 4 4 5 6 7 7 7
5 6 7 7 8 8 8 7 6 7 7 4 5 4 4 4 4 4 3 5 5 5 4 3 3 2 2 4 1 3 5 7 5 7 6 9 11 10 6 5 8 5 7 10 10 10 12 12 12 11 9 10 12 13 12 12 15 15 15 15 15 13 10 7 5 4 3 3 4 4 5 5 5 4
6 5 5 6 7 8 10 11 10 9 9 7 6 4 3 4 5 4 4 3 4 3 4 4 2 4 5 4 6 8 7 7 5 6 5 5 6 8 9 6 3 4 8 8 8 8 9 11 9 8 7 8 10 10 10 10 13 14 14 14 14 13 9 6 4 3 2 2 3 4 5 5 5 3
6 7 6 6 11 12 11 12 12 12 11 9 8 7 5 5 5 4 3 3 2 2 3 2 2 6 5 4 3 3 2 3 3 5 5 7 7 7 9 4 0 5 7 10 12 9 7 9 9 7 8 6 7 6 7 7 9 12 12 12 12 12 10 8 6 4 3 2 2 3 3 4 5 3
8 7 5 4 6 8 9 10 13 12 11 10 10 10 9 8 7 5 4 3 2 1 1 1 0 1 3 4 2 2 4 3 3 4 5 6 6 6 8 12 8 2 9 8 10 11 6 6 9 8 6 7 7 7 6 10 10 9 9 9 10 9 8 7 5 4 3 3 3 3 3 5 6 6
6 5 4 4 4 6 7 6 6 8 9 10 10 10 9 8 9 9 6 4 3 2 3 2 3 2 3 3 2 2 3 5 4 3 3 3 4 7 7 5 8 7 8 9 9 11 5 4 6 6 6 6 8 9 7 8 8 6 6 6 7 7 7 7 7 7 7 6 6 6 5 5 5 5
5 4 6 5 3 2 7 7 6 6 3 3 5 7 7 7 9 8 9 8 5 6 3 3 3 4 2 1 1 1 3 2 3 4 5 4 3 4 6 6 8 9 5 7 10 11 7 4 4 6 5 6 8 9 8 10 7 4 2 4 5 5 6 6 5 5 6 6 5 5 5 6 6 5
5 5 4 5 4 3 4 5 6 6 6 4 4 3 3 3 1 5 6 5 5 3 2 2 3 1 0 0 1 2 0 2 3 4 5 4 6 6 7 7 8 7 4 5 6 11 9 4 4 6 8 7 7 7 6 10 9 6 1 2 4 4 4 5 5 4 4 4 3 4 4 4 4 4
4 3 5 5 6 6 5 3 3 5 4 3 3 3 2 2 3 3 2 1 1 1 1 1 1 1 1 1 2 2 1 1 2 3 4 5 5 7 6 6 5 5 3 4 4 9 8 5 7 7 8 7 6 4 5 8 9 8 6 1 2 3 4 5 5 5 5 4 4 3 2 2 3 3
3 4 4 5 4 3 3 5 6 5 5 3 3 3 3 3 3 3 2 4 5 4 4 3 3 2 1 3 2 2 2 2 3 2 2 3 3 5 6 7 6 5 3 3 4 7 8 6 7 8 6 5 5 5 4 6 8 7 6 7 4 5 4 4 4 5 5 6 5 5 5 5 5 5
4 2 3 4 5 4 2 1 8 9 9 4 4 3 3 3 4 3 1 3 5 6 6 5 3 2 2 3 4 6 6 3 2 0 3 5 3 5 7 6 4 5 3 3 5 4 6 5 4 6 4 4 6 7 5 3 5 8 7 6 3 2 2 2 2 2 3 3 3 4 5 5 4 4
5 6 8 6 5 5 3 5 7 7 7 5 5 4 4 3 2 1 0 1 2 3 2 4 0 2 2 2 3 4 4 6 2 1 5 4 2 5 4 7 5 6 3 5 1 3 4 5 4 8 5 3 4 4 3 3 4 5 6 7 6 5 4 3 2 1 0 0 1 1 2 1 1 1
6 6 7 9 8 7 7 11 11 10 8 6 5 4 4 2 2 1 1 3 3 4 4 3 3 3 4 3 4 4 9 8 6 3 4 4 5 6 6 6 6 7 2 2 2 7 5 4 4 4 7 6 4 4 3 3 4 4 3 5 6 5 4 5 4 3 1 1 0 1 2 2 2 0
5 5 6 7 10 11 11 11 11 9 9 6 4 3 3 2 2 0 1 1 1 2 2 3 3 4 4 5 4 4 4 5 4 5 4 4 6 6 7 6 5 6 3 2 3 5 5 3 5 1 3 8 5 2 5 7 8 7 4 4 5 6 5 5 5 5 4 2 2 1 2 3 3 0
6 5 5 4 7 10 10 9 8 8 7 6 4 4 4 2 2 3 2 1 3 1 2 2 3 4 4 4 4 4 4 5 5 5 5 5 5 6 7 7 7 8 6 6 7 4 4 3 6 3 5 4 7 7 4 4 5 6 6 6 6 6 5 6 4 6 5 3 2 2 1 1 1 1
5 4 4 4 5 8 8 8 8 8 7 7 5 5 5 6 5 1 0 0 0 1 1 2 3 4 4 6 6 5 5 6 6 5 6 6 6 6 7 8 9 9 7 5 7 5 6 6 4 7 6 6 8 6 7 4 4 6 6 6 6 7 6 6 5 5 3 2 2 2 2 2 0 1
4 3 3 3 5 7 7 7 7 7 7 6 4 5 4 3 2 1 0 0 1 3 3 3 5 5 5 5 6 6 6 6 6 6 6 7 7 7 7 8 8 9 9 6 5 6 6 7 4 7 8 7 10 8 7 7 5 3 5 6 6 6 6 5 5 6 4 4 4 3 3 2 2 1
5 4 2 2 4 5 6 7 7 7 5 3 4 4 4 3 1 1 1 2 2 2 3 4 5 6 5 6 6 6 6 7 7 7 6 7 7 8 8 8 8 8 8 7 6 6 7 8 8 7 9 9 9 9 10 7 6 6 8 6 6 6 5 5 6 5 4 4 3 2 2 4 2 2
3 4 4 6 7 7 7 8 7 6 6 6 5 5 4 2 2 3 3 3 3 4 5 5 5 5 6 6 7 7 7 7 6 6 7 6 6 7 7 7 7 7 6 6 6 6 7 8 9 8 9 9 9 9 9 10 7 7 5 6 5 5 6 6 6 6 6 5 5 4 5 5 4 3
8 9 9 9 8 8 6 5 4 4 3 3 4 5 5 3 3 2 3 3 3 4 5 5 6 7 6 6 7 6 6 6 7 7 7 7 7 6 7 8 7 5 6 6 7 7 8 8 8 8 9 9 9 11 10 9 9 8 7 7 8 4 4 5 6 6 5 6 6 6 6 5 5 3
5 7 7 7 7 7 7 6 5 5 4 4 5 4 3 2 3 2 1 1 3 4 5 6 6 6 7 6 5 6 6 7 7 6 7 7 7 6 6 7 8 7 6 6 7 7 7 8 8 8 10 10 10 10 9 9 10 8 6 6 5 6 3 4 4 5 5 6 4 3 4 4 5 4
5 6 5 6 4 5 6 6 5 5 4 4 5 6 5 5 3 2 3 3 2 4 5 6 6 6 5 6 6 6 6 7 8 7 7 7 8 6 6 7 8 7 7 5 6 7 8 8 8 8 9 9 10 10 9 10 10 9 9 8 7 6 5 5 5 6 7 5 3 5 6 5 6 5
5 5 6 6 6 6 5 6 5 5 6 5 4 4 5 4 4 4 3 5 6 6 6 6 6 7 7 7 7 7 7 7 7 6 7 7 7 7 6 9 9 9 9 8 6 7 6 8 8 9 9 10 10 10 9 10 8 7 7 7 7 8 5 6 6 6 3 3 6 6 6 5 6 5
7 5 6 5 4 4 6 5 5 4 4 5 5 5 4 4 4 4 4 5 5 5 5 6 6 7 7 7 7 7 8 8 7 7 8 9 8 9 8 9 9 9 9 9 8 8 7 7 7 7 8 8 9 10 10 10 9 8 8 7 6 6 7 6 6 7 6 6 7 6 5 5 5 4
5 5 6 4 4 3 4 4 3 2 2 2 2 4 4 4 4 4 4 5 5 5 5 6 6 6 7 8 7 8 8 9 8 8 7 7 7 8 9 9 9 9 8 8 8 7 6 7 6 7 7 7 7 8 10 11 9 9 7 6 6 7 8 7 7 6 6 6 4 6 6 4 4 3
5 5 6 4 3 3 5 1 1 1 1 2 2 3 3 4 3 4 5 5 4 5 6 7 7 7 7 8 8 8 8 9 9 8 8 7 8 8 8 9 9 9 9 8 8 7 6 7 6 7 8 7 7 8 8 12 14 8 8 6 6 7 8 6 5 5 5 6 5 6 6 6 4 3
5 4 5 5 3 3 3 1 0 1 2 2 3 2 3 5 5 5 5 4 5 5 6 7 7 8 8 8 8 9 9 9 9 9 9 8 8 8 9 9 9 9 9 9 7 7 6 7 7 7 9 9 10 10 8 1 9 12 8 7 6 6 5 3 3 4 5 5 4 5 6 4 2 2
5 4 5 4 3 2 1 0 0 1 2 2 2 3 4 5 5 6 5 5 6 5 7 7 7 8 8 8 9 9 9 8 9 9 9 8 8 8 8 9 9 8 9 9 8 8 7 7 7 7 8 10 9 8 7 2 2 5 7 8 6 5 1 2 3 4 4 3 4 2 2 2 2 2
6 5 4 3 2 2 1 1 1 1 2 2 4 4 5 5 5 5 6 6 6 7 7 8 8 8 9 9 9 9 9 8 8 9 9 8 8 9 9 9 9 8 8 9 7 7 6 7 7 7 8 8 9 7 5 5 5 5 4 3 4 4 5 4 4 3 2 2 3 4 4 4 6 8
4 4 4 3 2 1 0 1 1 1 3 4 5 5 5 6 6 7 7 8 8 8 8 8 10 10 9 9 9 8 8 9 9 9 9 9 9 9 9 8 9 9 9 9 9 8 7 8 7 7 7 8 8 8 7 7 5 3 4 5 6 7 6 3 4 3 2 3 4 5 5 4 4 1
4 3 2 2 1 0 0 1 1 2 4 4 5 5 5 5 7 7 7 8 8 8 8 9 9 9 9 9 8 8 9 9 8 8 8 9 9 9 10 10 9 8 8 10 9 9 9 8 8 10 9 7 7 5 5 6 7 5 6 5 2 1 4 6 5 4 3 5 5 5 5 4 4 3
4 3 2 1 1 0 1 1 3 3 4 4 5 5 5 6 6 10 10 9 8 8 8 8 9 9 9 8 8 8 8 9 9 9 9 8 9 9 9 8 8 8 8 9 10 9 8 4 5 6 6 6 6 7 9 6 5 5 4 2 2 4 6 5 9 7 6 8 7 5 4 3 3 3
3 3 2 1 1 1 1 2 3 3 4 4 5 5 6 6 6 8 7 8 7 7 7 8 8 8 8 8 8 8 8 9 9 9 9 9 8 8 8 8 8 8 8 9 9 8 7 6 4 5 5 6 6 6 7 6 5 4 2 1 1 3 4 8 7 7 7 6 5 4 2 4 5 4
3 2 1 1 0 1 2 2 3 3 4 5 5 5 5 6 7 8 7 7 7 7 8 8 9 8 9 8 8 8 8 8 8 9 9 9 8 8 8 9 9 9 8 8 8 7 6 5 5 5 5 6 5 5 7 6 6 4 3 2 1 2 4 4 6 9 10 11 10 11 10 8 4 3
2 2 1 0 1 1 3 3 3 3 4 5 5 6 6 6 7 7 7 7 7 7 8 8 9 9 9 9 8 9 9 9 9 8 8 8 8 8 8 8 8 8 8 7 6 7 5 4 3 4 5 6 5 6 6 5 5 3 3 4 4 3 3 2 5 6 6 5 7 7 8 7 9 14
Wind_Direction
124 111 119 120 131 136 108 95 99 107 90 109 126 127 123 137 97 24 7 303 304 308 3 28 303 4 354 349 342 349 353 349 351 346 345 345 346 345 347 351 350 349 351 354 356 352 334 313 303 301 291 288 286 288 282 271 265 272 269 263 258 240 241 246 246 247 245 250 258 262 256 232 217 215
119 114 103 120 119 177 68 77 110 120 122 108 109 114 125 123 116 151 52 304 221 272 313 33 325 338 344 346 344 356 349 352 358 354 352 348 348 345 347 350 348 346 345 343 343 343 342 331 305 286 284 281 280 280 283 280 271 264 264 263 251 251 243 239 243 247 251 245 245 252 261 237 211 212
127 127 121 102 107 78 85 67 64 64 90 112 110 95 100 87 121 131 130 36 288 172 316 297 293 323 322 342 347 353 354 356 2 3 0 360 352 357 354 351 350 347 343 339 336 336 336 335 334 328 319 313 304 294 288 282 273 261 260 261 254 244 244 244 239 242 247 250 251 250 252 258 257 240
136 133 137 157 144 123 77 69 58 74 62 108 109 127 100 84 105 118 119 144 279 252 212 301 302 344 333 336 11 359 355 356 5 7 12 2 7 10 2 359 356 354 350 347 345 343 342 342 341 336 330 324 319 313 306 302 297 292 282 268 258 249 240 240 240 239 246 251 247 247 245 238 238 240
149 145 147 170 164 150 103 92 63 54 60 76 73 79 92 81 61 90 109 33 306 303 259 262 325 325 357 358 12 9 1 0 357 9 16 10 13 11 5 359 1 4 5 8 9 9 7 3 358 353 345 338 331 322 313 307 302 296 291 285 277 270 258 250 243 237 240 248 254 256 250 237 234 241
171 153 153 178 183 172 130 126 90 106 74 72 67 47 73 65 47 21 67 36 7 321 326 352 328 353 5 2 8 10 360 356 2 14 8 14 17 13 5 2 4 13 19 20 18 16 14 11 11 6 360 353 346 340 332 323 312 301 293 288 284 280 278 272 266 253 244 243 250 254 254 248 239 239
164 153 167 189 182 161 133 112 121 118 97 97 95 86 81 88 64 38 68 66 12 345 322 339 355 6 350 14 356 1 356 349 3 14 13 6 11 16 8 3 355 15 21 22 19 15 11 9 7 8 6 3 358 351 345 342 335 321 305 294 286 284 281 277 276 274 263 253 249 254 259 256 250 244
171 177 174 202 180 171 155 147 112 99 107 110 115 105 101 109 113 100 81 83 90 15 350 333 10 351 356 345 354 359 357 5 5 11 354 9 21 12 9 2 353 1 13 18 17 12 9 6 3 3 2 3 1 356 350 351 354 349 338 321 303 287 277 274 275 276 286 289 285 276 270 265 259 258
179 179 185 190 169 164 169 159 133 141 122 133 121 124 135 122 130 94 87 89 79 59 13 323 314 346 345 340 341 5 1 354 5 10 14 5 4 5 6 360 352 354 6 10 9 7 4 1 358 357 357 358 358 356 353 353 359 359 352 339 320 301 284 268 266 267 271 270 273 273 266 264 262 260
185 183 194 182 170 168 173 185 170 157 144 145 132 133 144 132 114 104 97 95 81 78 50 340 341 351 359 358 12 4 360 352 353 357 1 8 15 6 358 1 347 354 6 3 360 360 358 355 352 354 352 352 353 352 353 357 2 3 359 352 344 330 309 287 265 254 261 274 286 296 295 283 269 270
197 193 189 181 176 180 186 173 172 164 154 148 152 149 143 137 106 95 88 78 71 69 43 9 49 337 334 11 346 352 353 343 27 0 351 352 3 14 4 345 342 345 351 0 1 356 350 347 351 349 350 349 350 350 351 0 1 2 358 354 348 339 325 303 281 264 257 255 266 279 283 281 282 293
221 208 198 188 186 186 188 178 173 160 163 152 141 170 138 140 99 90 83 60 63 53 45 33 336 346 321 342 305 301 348 6 19 34 7 341 339 344 351 341 327 339 356 348 349 351 348 348 344 345 349 349 348 347 352 358 0 0 355 354 355 351 341 323 307 286 249 238 243 251 263 270 267 279
230 229 213 201 194 197 189 184 171 175 160 149 150 186 147 123 108 97 73 90 71 57 51 4 350 356 358 349 355 355 8 16 337 325 3 327 325 325 332 335 320 356 350 341 342 348 348 336 337 334 341 345 347 349 358 357 355 357 357 358 3 5 5 353 348 339 303 277 263 253 258 265 272 282
227 227 218 214 205 198 188 180 176 169 166 163 157 166 162 137 119 115 108 97 110 89 37 340 2 354 338 331 345 334 304 304 319 342 351 342 324 333 323 305 53 9 7 344 337 336 343 330 322 333 334 337 348 352 1 356 349 352 359 3 9 15 20 24 25 11 352 307 279 285 292 281 278 279
230 233 229 223 208 199 186 181 174 165 165 160 156 160 165 158 142 136 129 164 164 153 203 195 128 251 290 299 282 286 294 341 350 332 336 329 341 355 353 329 328 83 9 342 328 319 337 332 321 324 331 335 345 349 350 345 351 355 2 10 15 20 26 25 15 0 357 9 11 356 329 318 324 335
227 224 210 209 198 191 180 157 155 156 158 159 157 159 159 159 154 154 152 157 174 177 185 230 240 198 251 260 313 309 6 333 339 337 338 342 344 332 329 305 303 319 360 328 318 306 327 320 300 313 326 335 336 324 325 338 346 354 10 29 35 37 37 28 26 21 21 21 26 26 21 15 12 4
214 177 184 187 155 120 132 126 130 124 154 151 141 149 161 165 165 166 166 166 169 170 153 193 239 206 207 261 278 29 346 335 344 342 345 338 317 292 295 291 302 313 337 317 313 310 322 324 308 315 314 327 322 314 328 324 325 329 31 57 61 65 57 57 43 36 28 24 25 21 18 12 9 359
195 191 168 141 126 93 120 143 145 160 162 138 121 127 153 168 72 43 40 25 34 64 161 168 215 310 127 332 261 310 111 24 337 331 313 312 311 305 290 289 287 290 301 284 306 302 316 319 332 318 315 318 308 312 328 320 310 304 316 75 86 78 80 74 67 56 50 40 35 26 12 0 350 341
137 129 131 137 139 148 155 161 158 137 122 125 133 146 126 57 61 68 42 55 125 123 110 124 166 227 223 216 233 240 207 212 238 240 259 277 278 283 290 282 261 288 273 288 315 290 310 323 315 304 303 308 310 332 331 331 327 319 310 110 91 78 74 72 63 61 53 51 49 40 10 322 304 302
108 132 135 137 136 128 136 135 154 150 119 157 150 124 92 84 81 74 37 81 102 115 129 146 161 186 210 213 231 252 253 252 256 276 302 310 292 311 318 309 321 309 293 292 291 286 296 303 296 301 298 311 312 328 338 316 317 318 319 327 9 21 33 45 50 46 41 36 32 29 24 13 350 326
35 65 115 114 121 103 103 137 151 147 141 143 132 130 110 111 106 85 41 94 98 113 123 131 131 227 256 271 271 269 271 266 266 140 2 315 311 337 314 306 317 297 318 275 258 280 299 299 297 301 294 302 308 301 292 286 292 300 298 292 305 337 334 337 8 41 51 49 40 40 32 26 2 337
34 29 63 90 97 94 69 68 101 128 116 109 117 112 108 82 56 35 25 147 92 82 108 123 172 223 259 282 297 293 312 320 314 61 305 274 328 298 283 294 301 298 301 268 293 333 261 300 317 309 289 300 277 281 282 257 288 298 296 294 290 290 283 277 262 243 198 41 27 61 67 44 327 303
50 45 43 68 85 92 98 92 91 92 93 96 98 110 102 93 48 314 25 33 15 6 10 356 3 332 337 340 338 329 329 322 316 279 257 276 280 279 282 284 304 316 279 262 354 316 301 325 288 299 317 308 277 276 285 296 273 263 256 265 280 270 261 271 273 270 255 194 187 158 144 171 196 241
54 65 73 73 88 91 87 85 83 86 99 108 118 102 95 113 60 43 61 43 62 356 4 327 339 320 318 326 325 318 310 308 296 290 275 259 250 260 272 271 259 260 260 256 319 289 283 249 284 292 292 306 303 304 313 296 290 287 270 270 268 259 255 273 275 273 273 257 247 220 119 112 138 167
102 87 84 83 94 98 97 98 97 95 87 87 96 86 95 97 101 112 53 17 47 8 331 323 313 304 310 308 304 292 294 286 288 284 275 261 246 246 261 270 266 262 250 258 267 260 269 286 291 289 273 247 275 294 253 241 254 258 262 252 263 279 265 252 246 253 248 263 318 328 343 52 67 99
87 108 109 98 90 92 92 86 84 79 76 73 83 77 84 88 71 64 101 192 345 325 291 293 301 301 301 298 295 294 290 287 284 278 274 270 262 245 235 246 266 278 273 249 241 246 276 282 260 281 272 276 275 256 287 265 253 251 250 246 242 257 249 258 259 263 252 246 259 264 272 269 93 49
112 82 75 80 72 69 72 75 76 70 62 55 53 55 40 57 112 130 121 183 354 343 329 319 305 298 296 302 300 296 290 278 273 271 267 269 266 262 255 246 238 251 267 272 261 262 259 271 262 268 277 272 278 279 267 280 279 280 280 266 261 255 244 228 248 256 255 251 248 221 230 278 265 252
112 99 77 72 79 56 51 49 46 45 47 42 25 19 13 360 32 89 39 5 360 325 319 316 309 305 294 292 291 283 277 276 271 271 268 266 261 260 263 260 261 257 261 256 254 249 255 266 271 260 265 271 272 274 279 258 256 254 261 253 251 255 247 219 240 256 260 256 271 248 257 271 236 247
115 117 90 67 52 42 42 45 47 45 40 30 16 7 359 24 53 32 15 352 353 338 317 302 292 286 281 274 275 280 281 282 286 283 278 268 267 267 267 265 261 265 262 258 253 254 259 266 271 272 268 268 271 271 269 276 269 264 239 259 272 248 236 224 219 230 237 227 231 222 224 231 247 207
80 69 62 60 57 57 61 65 63 60 42 52 55 52 50 44 35 30 14 351 347 313 298 295 291 283 284 282 277 280 287 290 283 283 287 293 290 290 288 290 278 263 255 253 253 255 259 264 268 272 273 269 268 271 268 273 267 262 248 243 254 274 266 233 230 231 231 230 229 223 237 222 223 194
78 75 79 86 88 93 81 81 83 69 44 44 22 20 21 26 16 18 16 321 294 295 292 284 278 277 274 280 296 293 295 293 290 281 286 287 284 284 279 279 283 279 260 254 254 254 256 260 261 263 268 270 268 267 274 269 271 265 252 237 239 249 236 213 237 243 237 245 249 276 277 255 248 222
96 98 90 74 57 57 47 37 32 25 32 43 21 6 3 356 347 330 300 288 268 267 265 271 279 285 293 298 291 294 295 293 291 287 280 281 284 280 287 284 281 280 274 256 260 258 258 257 259 258 257 264 271 276 272 270 270 270 267 255 242 248 223 213 224 230 229 221 238 246 237 227 232 231
80 71 62 55 48 42 51 36 28 19 17 8 8 8 354 346 335 326 339 323 305 297 301 300 303 302 304 297 294 293 290 285 287 287 285 279 280 283 270 274 279 279 280 275 263 260 253 259 251 253 257 261 260 262 267 273 267 264 265 258 253 252 241 225 216 230 202 177 227 239 247 237 228 223
87 77 84 67 74 56 57 46 34 19 17 12 358 342 328 324 319 309 301 296 293 299 302 301 305 301 299 297 297 294 290 289 282 283 282 285 282 282 278 278 275 272 269 270 267 266 265 257 255 252 251 253 252 247 246 251 257 252 244 245 239 249 245 236 231 232 210 204 214 232 240 248 235 221
88 98 89 73 60 66 72 60 44 32 24 350 322 315 311 299 298 297 300 294 301 307 307 304 298 298 298 298 298 295 294 292 291 287 279 276 274 270 273 274 275 272 270 270 269 268 270 272 271 272 270 267 268 260 228 229 247 244 256 243 227 237 249 233 232 229 218 231 211 231 244 252 251 242
85 96 100 83 71 75 70 53 58 44 340 310 314 309 320 308 291 298 305 302 308 305 310 313 310 305 301 298 296 293 291 290 288 287 286 280 278 275 271 269 273 272 270 269 270 268 263 265 261 268 277 276 272 277 275 219 217 235 241 247 229 233 243 241 227 224 220 231 217 215 228 239 230 206
105 94 96 101 96 92 99 146 165 301 316 316 306 301 301 312 312 310 301 309 309 300 298 302 299 300 298 296 295 292 290 289 287 287 283 280 276 274 275 273 269 269 270 267 264 265 255 257 253 252 262 272 273 274 271 357 238 232 219 234 245 235 238 240 218 236 229 220 222 205 221 209 204 183
119 112 101 99 108 123 150 159 352 343 327 309 309 315 313 304 301 301 300 308 304 305 307 305 298 299 296 295 294 291 288 282 281 281 279 279 279 277 273 276 275 270 269 270 264 260 250 250 248 244 247 259 267 266 281 267 261 268 235 221 241 253 222 213 232 225 235 207 223 236 152 146 161 136
114 114 118 121 138 141 89 315 3 318 307 328 336 325 312 305 299 300 312 314 315 312 311 306 303 299 297 292 287 284 286 287 285 282 282 279 274 275 276 273 274 272 271 271 264 256 247 243 241 240 239 247 252 263 272 279 267 270 293 216 197 259 264 225 246 236 206 135 82 69 49 72 88 99
115 122 139 136 147 166 187 323 328 303 346 325 312 300 301 308 317 324 324 320 316 310 306 301 298 296 292 288 284 283 280 280 280 279 279 278 276 272 272 272 272 276 274 271 269 261 248 244 236 235 235 238 245 249 250 257 265 276 282 285 218 214 242 212 228 212 181 154 138 123 125 133 116 359
135 122 159 158 160 195 86 287 295 348 332 306 305 304 306 314 323 321 314 309 308 307 303 298 295 291 289 288 287 287 287 285 282 280 279 278 276 274 272 273 274 269 270 272 267 265 254 245 236 231 233 244 249 266 270 254 253 242 250 260 276 283 268 233 223 195 173 155 155 137 141 137 127 114
141 143 176 198 168 229 234 352 350 327 305 307 306 308 319 324 316 313 310 305 301 296 293 293 293 292 291 291 293 291 287 286 288 285 283 282 281 279 273 269 266 268 261 264 267 264 265 246 233 232 234 239 246 239 247 250 252 251 248 299 319 340 355 311 232 213 152 144 137 132 105 77 70 105
142 153 168 213 228 236 339 345 304 292 301 306 310 320 327 320 313 311 306 304 301 300 297 298 296 296 295 295 295 292 290 287 287 286 285 281 279 279 280 275 268 267 264 265 267 268 270 261 235 229 230 227 229 222 242 240 243 245 241 233 292 359 16 27 64 107 118 120 94 98 135 150 148 161
161 164 215 221 235 314 323 286 294 306 304 312 319 325 317 312 310 306 304 300 304 303 305 301 299 299 299 299 297 293 289 287 288 289 288 287 283 280 278 278 276 272 269 266 271 269 263 254 231 217 220 226 219 214 231 234 242 232 216 169 138 109 92 74 71 64 61 51 63 78 77 87 116 145
177 195 209 257 253 280 279 289 309 312 327 335 336 323 316 312 307 305 303 302 302 304 304 302 302 303 303 302 302 299 297 295 293 289 287 286 285 282 279 277 278 277 274 270 270 274 263 250 232 205 218 231 216 215 226 221 229 201 171 149 148 133 121 120 102 90 77 73 26 59 90 90 98 101